{"data":{"norad_id":61212,"intl_designator":"2024-171N","name":"STARLINK-11310 [DTC]","alt_names":[],"object_type":"PAYLOAD","status":"ACTIVE","operator":null,"country":"US","launch_date":"2024-09-20","launch_site_code":"AFWTR","launch_vehicle":null,"mission":null,"orbit_class":"UNKNOWN","rcs_meters":null,"size_class":null,"mass_kg":null,"dimensions":null,"purposes":["comms"],"wikipedia_slug":null,"has_3d_model":false,"image_url":null,"decayed_at":null,"tle_current":{"epoch":"2026-05-24T18:19:26.450976Z","epoch_age_seconds":95824,"freshness":"FRESH","line1":"1 61212U 24171N   26144.76350059  .00002878  00000+0  28611-4 0  9995","line2":"2 61212  53.1591 161.4867 0001143  72.6990 287.4153 15.69704717 96342","mean_motion":15.69704717,"eccentricity":0.0001143,"inclination_deg":53.1591,"raan_deg":161.4867,"arg_perigee_deg":72.699,"mean_anomaly_deg":287.4153,"bstar":2.8611e-5,"rev_number":9634,"period_min":91.736998965774,"perigee_km":358.9717288313,"apogee_km":360.51200794061,"semimajor_km":6737.878868386,"source":"CELESTRAK","updated_at":"2026-05-25T13:38:19.361203Z"}}}